Tracking 31027 objects as of 19-Jul-2025
HD Live streaming from Space Station
objects crossing your sky now

STARLINK-3895

Track STARLINK-3895 now!
10-day predictions
STARLINK-3895 is classified as:


NORAD ID: 52583
Int'l Code: 2022-051AZ
Perigee: 545.9 km
Apogee: 547.9 km
Inclination: 53.2 °
Period: 95.4 minutes
Semi major axis: 6917 km
RCS: Unknown
Launch date: May 13, 2022
Source: United States (US)
Launch site: AIR FORCE WESTERN TEST RANGE (AFWTR)
Your satellite tracking list
GALASSIA
Track 1 satellite(s)




NASA's NSSDC Master Catalog

Two Line Element Set (TLE):
1 52583U 22051AZ  25199.11443752 -.00002238  00000-0 -12259-3 0  9995
2 52583  53.2175  92.1680 0001405  96.3511 263.7641 15.08829511176170
Source of the keplerian elements: AFSPC